Meteo orario Abdulkarimovo

Oggi, 24 Giugno, Giovedi

Tempo Temperatura Precipitazioni Vento Pressione Umidità
00:00 +17°C° 0.3 mm 2 m/s 723 mm Hg 97%
01:00 +17°C° 0.3 mm 2 m/s 723 mm Hg 97%
02:00 +16°C° 0 mm 3 m/s 723 mm Hg 96%
03:00 +16°C° 0 mm 3 m/s 724 mm Hg 96%
04:00 +16°C° 0 mm 3 m/s 724 mm Hg 95%
05:00 +16°C° 0 mm 3 m/s 724 mm Hg 92%
06:00 +16°C° 0 mm 3 m/s 724 mm Hg 89%
07:00 +16°C° 0 mm 3 m/s 725 mm Hg 87%
08:00 +18°C° 0 mm 3 m/s 725 mm Hg 76%
09:00 +19°C° 0 mm 3 m/s 725 mm Hg 66%
10:00 +21°C° 0 mm 3 m/s 725 mm Hg 55%
11:00 +22°C° 0 mm 3 m/s 725 mm Hg 51%
12:00 +24°C° 0 mm 3 m/s 725 mm Hg 47%
13:00 +25°C° 0 mm 2 m/s 725 mm Hg 42%
14:00 +25°C° 0 mm 2 m/s 725 mm Hg 41%
15:00 +26°C° 0 mm 2 m/s 725 mm Hg 39%
16:00 +26°C° 0 mm 2 m/s 725 mm Hg 37%
17:00 +25°C° 0 mm 2 m/s 725 mm Hg 42%
18:00 +24°C° 0 mm 2 m/s 725 mm Hg 46%
19:00 +23°C° 0 mm 2 m/s 724 mm Hg 51%
20:00 +20°C° 0 mm 2 m/s 724 mm Hg 52%
21:00 +18°C° 0 mm 2 m/s 724 mm Hg 53%
22:00 +18°C° 0 mm 1 m/s 724 mm Hg 54%
23:00 +16°C° 0 mm 1 m/s 724 mm Hg 55%

Domani, 25 Giugno, Venerdi

Tempo Temperatura Precipitazioni Vento Pressione Umidità
00:00 +16°C° 0 mm 1 m/s 724 mm Hg 55%
01:00 +14°C° 0 mm 0 m/s 724 mm Hg 56%
02:00 +14°C° 0 mm 0 m/s 723 mm Hg 58%
03:00 +15°C° 0 mm 1 m/s 723 mm Hg 59%
04:00 +15°C° 0 mm 1 m/s 723 mm Hg 61%
05:00 +17°C° 0 mm 2 m/s 723 mm Hg 58%
06:00 +19°C° 0 mm 2 m/s 723 mm Hg 55%
07:00 +21°C° 0 mm 3 m/s 723 mm Hg 52%
08:00 +24°C° 0 mm 3 m/s 723 mm Hg 49%
09:00 +25°C° 0 mm 4 m/s 723 mm Hg 45%
10:00 +27°C° 0 mm 4 m/s 723 mm Hg 42%
11:00 +28°C° 0 mm 4 m/s 723 mm Hg 41%
12:00 +29°C° 0 mm 4 m/s 722 mm Hg 40%
13:00 +30°C° 0 mm 4 m/s 722 mm Hg 39%
14:00 +29°C° 0 mm 4 m/s 722 mm Hg 43%
15:00 +29°C° 0 mm 4 m/s 721 mm Hg 46%
16:00 +28°C° 0 mm 4 m/s 721 mm Hg 50%
17:00 +27°C° 0 mm 4 m/s 721 mm Hg 56%
18:00 +26°C° 0 mm 4 m/s 721 mm Hg 62%
19:00 +26°C° 0 mm 3 m/s 721 mm Hg 68%
20:00 +24°C° 0.1 mm 3 m/s 721 mm Hg 75%
21:00 +21°C° 0.1 mm 2 m/s 720 mm Hg 82%
22:00 +19°C° 0.1 mm 2 m/s 720 mm Hg 89%
23:00 +19°C° 0 mm 2 m/s 720 mm Hg 90%

Dopodomani, 26 Giugno, Sabato

Tempo Temperatura Precipitazioni Vento Pressione Umidità
00:00 +19°C° 0 mm 2 m/s 720 mm Hg 90%
01:00 +18°C° 0 mm 2 m/s 720 mm Hg 90%
02:00 +19°C° 0 mm 1 m/s 720 mm Hg 91%
03:00 +19°C° 0 mm 1 m/s 720 mm Hg 91%
04:00 +18°C° 0 mm 1 m/s 720 mm Hg 91%
05:00 +20°C° 0 mm 1 m/s 720 mm Hg 85%
06:00 +20°C° 0 mm 0 m/s 720 mm Hg 80%
07:00 +21°C° 0 mm 0 m/s 720 mm Hg 74%
08:00 +25°C° 0 mm 1 m/s 720 mm Hg 66%
09:00 +27°C° 0 mm 1 m/s 720 mm Hg 58%
10:00 +29°C° 0 mm 2 m/s 721 mm Hg 50%
11:00 +29°C° 0 mm 2 m/s 720 mm Hg 48%
12:00 +30°C° 0 mm 3 m/s 720 mm Hg 46%
13:00 +31°C° 0 mm 3 m/s 720 mm Hg 44%
14:00 +30°C° 0.1 mm 3 m/s 720 mm Hg 45%
15:00 +30°C° 0.1 mm 2 m/s 719 mm Hg 47%
16:00 +30°C° 0.1 mm 2 m/s 719 mm Hg 48%
17:00 +28°C° 1.6 mm 2 m/s 719 mm Hg 58%
18:00 +26°C° 1.6 mm 2 m/s 719 mm Hg 68%
19:00 +24°C° 1.6 mm 2 m/s 719 mm Hg 78%
20:00 +23°C° 1.1 mm 2 m/s 720 mm Hg 83%
21:00 +21°C° 1.1 mm 1 m/s 720 mm Hg 87%
22:00 +19°C° 1.1 mm 1 m/s 720 mm Hg 91%
23:00 +19°C° 0 mm 1 m/s 719 mm Hg 92%

27 Giugno, Domenica

Tempo Temperatura Precipitazioni Vento Pressione Umidità
00:00 +19°C° 0 mm 2 m/s 719 mm Hg 92%
01:00 +19°C° 0 mm 2 m/s 719 mm Hg 92%
02:00 +18°C° 0 mm 2 m/s 719 mm Hg 93%
03:00 +18°C° 0 mm 2 m/s 719 mm Hg 93%
04:00 +18°C° 0 mm 2 m/s 719 mm Hg 94%
05:00 +20°C° 0 mm 3 m/s 719 mm Hg 89%
06:00 +21°C° 0 mm 3 m/s 719 mm Hg 85%
07:00 +24°C° 0 mm 3 m/s 719 mm Hg 81%
08:00 +25°C° 0 mm 3 m/s 720 mm Hg 71%
09:00 +27°C° 0 mm 3 m/s 720 mm Hg 61%
10:00 +29°C° 0 mm 3 m/s 720 mm Hg 51%
11:00 +29°C° 0 mm 3 m/s 720 mm Hg 50%
12:00 +30°C° 0 mm 2 m/s 720 mm Hg 49%
13:00 +30°C° 0 mm 1 m/s 720 mm Hg 48%
14:00 +29°C° 0 mm 1 m/s 720 mm Hg 52%
15:00 +28°C° 0 mm 1 m/s 720 mm Hg 56%
16:00 +28°C° 0 mm 2 m/s 720 mm Hg 60%
17:00 +27°C° 0 mm 1 m/s 720 mm Hg 63%
18:00 +27°C° 0 mm 1 m/s 720 mm Hg 65%
19:00 +26°C° 0 mm 1 m/s 720 mm Hg 67%
20:00 +25°C° 0 mm 1 m/s 720 mm Hg 70%
21:00 +24°C° 0 mm 1 m/s 720 mm Hg 74%
22:00 +22°C° 0 mm 1 m/s 720 mm Hg 77%
23:00 +22°C° 0 mm 1 m/s 720 mm Hg 78%

28 Giugno, Lunedi

Tempo Temperatura Precipitazioni Vento Pressione Umidità
00:00 +21°C° 0 mm 1 m/s 720 mm Hg 79%
01:00 +20°C° 0 mm 2 m/s 720 mm Hg 81%
02:00 +19°C° 0 mm 2 m/s 720 mm Hg 83%
03:00 +18°C° 0 mm 3 m/s 720 mm Hg 86%
04:00 +18°C° 0 mm 3 m/s 720 mm Hg 88%
05:00 +19°C° 0 mm 4 m/s 721 mm Hg 84%
06:00 +20°C° 0 mm 5 m/s 721 mm Hg 80%
07:00 +21°C° 0 mm 5 m/s 722 mm Hg 76%
08:00 +22°C° 0 mm 5 m/s 722 mm Hg 70%
09:00 +23°C° 0 mm 5 m/s 722 mm Hg 64%
10:00 +25°C° 0 mm 5 m/s 722 mm Hg 59%
11:00 +26°C° 0 mm 4 m/s 722 mm Hg 55%
12:00 +27°C° 0 mm 4 m/s 722 mm Hg 51%
13:00 +28°C° 0 mm 4 m/s 722 mm Hg 47%
14:00 +28°C° 0 mm 4 m/s 722 mm Hg 46%
15:00 +28°C° 0 mm 4 m/s 722 mm Hg 44%
16:00 +28°C° 0 mm 4 m/s 723 mm Hg 42%
17:00 +27°C° 0 mm 4 m/s 722 mm Hg 47%
18:00 +26°C° 0 mm 4 m/s 722 mm Hg 51%
19:00 +25°C° 0 mm 4 m/s 722 mm Hg 56%
20:00 +22°C° 0 mm 3 m/s 722 mm Hg 62%
21:00 +20°C° 0 mm 3 m/s 723 mm Hg 67%
22:00 +18°C° 0 mm 3 m/s 723 mm Hg 73%
23:00 +18°C° 0 mm 3 m/s 723 mm Hg 76%

29 Giugno, Martedi

Tempo Temperatura Precipitazioni Vento Pressione Umidità
00:00 +17°C° 0 mm 3 m/s 723 mm Hg 78%
01:00 +16°C° 0 mm 3 m/s 723 mm Hg 81%
02:00 +16°C° 0 mm 2 m/s 723 mm Hg 83%
03:00 +15°C° 0 mm 2 m/s 723 mm Hg 86%
04:00 +15°C° 0 mm 2 m/s 723 mm Hg 88%
05:00 +16°C° 0 mm 2 m/s 724 mm Hg 81%
06:00 +18°C° 0 mm 3 m/s 724 mm Hg 74%
07:00 +19°C° 0 mm 3 m/s 724 mm Hg 67%
08:00 +21°C° 0 mm 4 m/s 724 mm Hg 61%
09:00 +22°C° 0 mm 4 m/s 724 mm Hg 55%
10:00 +23°C° 0 mm 4 m/s 724 mm Hg 50%
11:00 +25°C° 0 mm 4 m/s 724 mm Hg 47%
12:00 +26°C° 0 mm 4 m/s 724 mm Hg 45%
13:00 +27°C° 0 mm 3 m/s 724 mm Hg 43%
14:00 +27°C° 0 mm 3 m/s 724 mm Hg 42%
15:00 +28°C° 0 mm 3 m/s 724 mm Hg 41%
16:00 +28°C° 0 mm 3 m/s 724 mm Hg 40%
17:00 +27°C° 0 mm 2 m/s 724 mm Hg 45%
18:00 +26°C° 0 mm 2 m/s 724 mm Hg 50%
19:00 +25°C° 0 mm 2 m/s 724 mm Hg 55%
20:00 +23°C° 0 mm 2 m/s 724 mm Hg 58%
21:00 +21°C° 0 mm 1 m/s 724 mm Hg 61%
22:00 +20°C° 0 mm 1 m/s 723 mm Hg 64%
23:00 +19°C° 0 mm 1 m/s 723 mm Hg 67%
Mostrare altro

Abbiamo bisogno del tuo consenso

Meteoprog e i nostri fornitori di servizi possono memorizzare e accedere a dati personali come cookie, identificatori di dispositivi o altre tecnologie simili sul tuo dispositivo e possono elaborare tali dati per personalizzare i contenuti e gli annunci, nonché fornire funzionalità dei social media e analizzarne il traffico.

  • Archiviare e/o accedere alle informazioni sul tuo dispositivo

    Cookie, identificatori di dispositivi o altre informazioni possono essere memorizzati o resi accessibili sul tuo dispositivo per le finalità sopra indicate.

  • Annunci e contenuti personalizzati, misurazione di annunci e contenuti, approfondimenti sul pubblico e sviluppo di prodotti

    Gli annunci e i contenuti possono essere personalizzati in base a un profilo. È possibile aggiungere più dati per personalizzare meglio annunci e contenuti. È possibile misurare il rendimento degli annunci e dei contenuti. È possibile ricavare informazioni sul pubblico che ha visto gli annunci e i contenuti. Tali dati possono essere utilizzati per sviluppare o migliorare l'esperienza, i sistemi e il software dell'utente.

Cliccando su “Accetto”, acconsenti all'uso di cookie, identificatori di dispositivo, web beacon o altre tecnologie simili. Puoi modificare le impostazioni nel browser del tuo dispositivo.

Per determinati scopi, è possibile fare affidamento su interessi legali, piuttosto che sul consenso. Puoi approfondire questo argomento consultando la nostra Informativa sulla privacy e sui cookie.